Regional Weather Roundup
Issued by NWS Cleveland, OH

Home | Current Version | Previous Version | Graphics & Text | Print | Product List | Glossary On
Versions: 1 2 3 4 5 6 7 8 9 10 11 12 13 14 15 16 17 18 19 20 21 22 23 24 25 26 27 28 29 30 31 32 33 34 35 36 37 38 39 40 41 42 43 44 45 46 47 48 49 50
000
ASUS41 KCLE 271410
RWRCLE
OHIO REGIONAL WEATHER ROUNDUP
NATIONAL WEATHER SERVICE CLEVELAND, OH
900 AM EST FRI FEB 27 2015

NOTE: "FAIR" INDICATES FEW OR NO CLOUDS BELOW 12,000 FEET WITH NO
SIGNIFICANT WEATHER AND/OR OBSTRUCTIONS TO VISIBILITY.

OHZ001>008-015>018-024>027-034-035-043-044-271500-
   NORTHWEST OHIO

CITY           SKY/WX    TMP DP  RH WIND       PRES   REMARKS
DEFIANCE       SUNNY     -1  -5  82 CALM      30.54R
FINDLAY        SUNNY     -1  -2  95 CALM      30.51R
TOLEDO EXPRESS SUNNY     -2  -5  87 CALM      30.52R
TOLEDO EXEC    SUNNY      1  -4  79 CALM      30.54R
LIMA           SUNNY      3   2  95 CALM      30.50R FOG
$$

OHZ009>014-019>023-028>033-038-089-271500-
   NORTHEAST OHIO

CITY           SKY/WX    TMP DP  RH WIND       PRES   REMARKS
CLE-HOPKINS    MOSUNNY    0  -4  83 SW5       30.54R WCI -10
CLE-LAKEFRONT  SUNNY      6   0  76 CALM      30.52R
CUY CO. ARPT   SUNNY      5   1  85 CALM      30.50R
LORAIN-ELYRIA  SUNNY     -4  -9  79 CALM      30.52R
ASHTABULA      SUNNY      1  -4  79 CALM      30.48R
AKRON-CANTON   SUNNY      3  -3  76 N7        30.46R WCI  -9
WOOSTER        SUNNY     -6  -7  95 W3        30.48R
MANSFIELD      CLOUDY     4   1  88 SE3       30.46R
YOUNGSTOWN     SUNNY      0  -4  83 NW6       30.45R WCI -12
$$

OHZ042-051>053-060>062-070>072-077>081-271500-
  SOUTHWEST OHIO

CITY           SKY/WX    TMP DP  RH WIND       PRES   REMARKS
CINC-COVINGTON MOSUNNY    8   0  69 CALM      30.54R
CINC-LUNKEN    MOSUNNY   11   2  67 CALM      30.59R
HAMILTON       SUNNY      8  -1  66 NW3       30.57R
DAYTON         MOSUNNY    4  -3  73 NW7       30.52R WCI  -8
WRIGHT-PAT AFB MOSUNNY    7   2  79 W2        30.53R
DAYTON GENERAL SUNNY      7   0  73 W3        30.51R
WILMINGTON     LGT SNOW  10   5  80 SW5       30.50R WCI   2
$$

OHZ036-037-039>041-045>050-054>059-063>069-073>076-082>088-271500-
  CENTRAL AND SOUTHEAST OHIO

CITY           SKY/WX    TMP DP  RH WIND       PRES   REMARKS
COLUMBUS       CLOUDY     8   3  80 W5        30.51R WCI   0
OSU AIRPORT    LGT SNOW   8   5  87 CALM      30.50R FOG
BOLTON FIELD   LGT SNOW   3   1  92 CALM      30.51R
RICKENBACK AFB CLOUDY     2  -2  85 CALM      30.52R
NEWARK         CLOUDY     7   3  84 CALM      30.50R
MARION         PTSUNNY    2   2 100 CALM      30.50R FOG
LANCASTER      CLOUDY     5   4  95 CALM      30.51R FOG
ZANESVILLE     SUNNY      7   1  76 VRB5      30.50R WCI  -2
NEW PHILLY     SUNNY      7   1  76 CALM      30.52R
$$


USA.gov is the U.S. government's official web portal to all federal, state and local government web resources and services.